EHI
0 0 0 0 0 0 0 0 0 0 0 0 0 0 0 0 0 0 0 0 0 0 0 0 0 0 0 0 0 0 0 0 0 0 0 0 0 0 0 0 0 0 0 0
0 0 0 0 0 0 0 0 0 0 0 0 0 0 0 0 0 0 0 0 0 0 0 0 0 0 0 0 0 0 0 0 0 0 0 0 0 0 0 0 0 0 0 0
0 0 0 0 0 0 0 0 0 0 0 0 0 0 0 0 0 0 0 0 0 0 0 0 0 0 0 0 0 0 0 0 0 0 0 0 0 0 0 0 0 0 0 0
0 0 0 0 0 0 0 0 0 0 0 0 0 0 0 0 0 0 0 0 0 0 0 0 0 0 0 0 0 0 0 0 0 0 0 0 0 0 0 0 0 0 0 0
0 0 0 0 0 0 0 0 0 0 0 0 0 0 0 0 0 0 0 0 0 0 0 0 0 0 0 0 0 0 0 0 0 0 0 0 0 0 0 0 0 0 0 0
0 0 0 0 0 0 0 0 0 0 0 0 0 0 0 0 0 0 0 0 0 0 0 0 0 0 0 0 0 0 0 0 0 0 0 0 0 0 0 0 0 0 0 0
0 0 0 0 0 0 0 0 0 0 0 0 0 0 0 0 0 0 0 0 0 0 0 0 0 0 0 0 0 0 0 0 0 0 0 0 0 0 0 0 0 0 0 0
0 0 0 0 0 0 0 0 0 0 0 0 0 0 0 0 0 0 0 0 0 0 0 0 0 0 0 0 0 0 0 0 0 0 0 0 0 0 0 0 0 0 0 0
0 0 0 0 0 0 0 0 0 0 0 0 0 0 0 0 0 0 0 0 0 0 0 0 0 0 0 0 0 0 0 0 0 0 0 0 0 0 0 0 0 0 0 0
0 0 0 0 0 0 0 0 0 0 0 0 0 0 0 0 0 0 0 0 0 0 0 0 0 0 0 0 0 0 0 0 0 0 0 0 0 0 0 0 0 0 0 0
0 0 0 0 0 0 0 0 0 0 0 0 0 0 0 0 0 0 0 0 0 0 0 0 0 0 0 0 0 0 0 0 0 0 0 0 0 0 0 0 0 0 0 0
0 0 0 0 0 0 0 0 0 0 0 0 0 0 0 0 0 0 0 0 0 0 0 0 0 0 0 0 0 0 0 0 0 0 0 0 0 0 0 0 0 0 0 0
0 0 0 0 0 0 0 0 0 0 0 0 0 0 0 0 0 0 0 0 0 0 0 0 0 0 0 0 0 0 0 0 0 0 0 0 0 0 0 0 0 0 0 0
0 0 0 0 0 0 0 0 0 0 0 0 0 0 0 0 0 0 0 0 0 0 0 0 0 0 0 0 0 0 0 0 0 0 0 0 0 0 0 0 0 0 0 0
0 0 0 0 0 0 0 0 0 0 0 0 0 0 0 0 0 0 0 0 0 0 0 0 0 0 0 0 0 0 0 0 0 0 0 0 0 0 0 0 0 0 0 0
0 0 0 0 0 0 0 0 0 0 0 0 0 0 0 0 0 0 0 0 0 0 0 0 0 0 0 0 0 0 0 0 0 0 0 0 0 0 0 0 0 0 0 0
0 0 0 0 0 0 0 0 0 0 0 0 0 0 0 0 0 0 0 0 0 0 0 0 0 0 0 0 0 0 0 0 0 0 0 0 0 0 0 0 0 0 0 0
0 0 0 0 0 0 0 0 0 0 0 0 0 0 0 0 0 0 0 0 0 0 0 0 0 0 0 0 0 0 0 0 0 0 0 0 0 0 0 0 0 0 0 0
0 0 0 0 0 0 0 0 0 0 0 0 0 0 0 0 0 0 0 0 0 0 0 0 0 0 0 0 0 0 0 0 0 0 0 0 0 0 0 0 0 0 0 0
0 0 0 0 0 0 0 0 0 0 0 0 0 0 0 0 0 0 0 0 0 0 0 0 0 0 0 0 0 0 0 0 0 0 0 0 0 0 0 0 0 0 0 0
0 0 0 0 0 0 0 0 0 0 0 0 0 0 0 0 0 0 0 0 0 0 0 0 0 0 0 0 0 0 0 0 0 0 0 0 0 0 0 0 0 0 0 0
0 0 0 0 0 0 0 0 0 0 0 0 0 0 0 0 0 0 0 0 0 0 0 0 0 0 0 0 0 0 0 0 0 0 0 0 0 0 0 0 0 0 0 0
0 0 0 0 0 0 0 0 0 0 0 0 0 0 0 0 0 0 0 0 0 0 0 0 0 0 0 0 0 0 0 0 0 0 0 0 0 0 0 0 0 0 0 0
0 0 0 0 0 0 0 0 0 0 0 0 0 0 0 0 0 0 0 0 0 0 0 0 0 0 0 0 0 0 0 0 0 0 0 0 0 0 0 0 0 0 0 0
0 0 0 0 0 0 0 0 0 0 0 0 0 0 0 0 0 0 0 0 0 0 0 0 0 0 0 0 0 0 0 0 0 0 0 0 0 0 0 0 0 0 0 0
0 0 0 0 0 0 0 0 0 0 0 0 0 0 0 0 0 0 0 0 0 0 0 0 0 0 0 0 0 0 0 0 0 0 0 0 0 0 0 0 0 0 0 0
0 0 0 0 0 0 0 0 0 0 0 0 0 0 0 0 0 0 0 0 0 0 0 0 0 0 0 0 0 0 0 0 0 0 0 0 0 0 0 0 0 0 0 0
Wind_Speed
6 5 3 4 5 5 8 8 8 8 8 9 8 6 5 4 4 4 4 4 4 4 4 4 4 3 3 3 3 2 3 4 5 4 4 4 5 5 5 5 6 5 5 5
5 4 3 5 6 5 7 7 8 8 10 7 7 5 5 5 4 5 5 5 5 5 5 5 5 5 4 4 3 3 4 5 5 4 4 4 5 5 5 6 5 5 6 6
5 4 3 6 5 5 4 4 4 8 9 6 6 6 6 6 5 6 6 6 6 6 6 6 5 5 5 5 4 3 4 4 4 5 5 5 5 5 6 6 5 6 6 6
2 2 5 5 1 2 4 4 4 5 6 5 6 7 6 5 5 7 6 6 6 6 6 6 5 5 4 4 4 4 5 5 5 4 5 5 5 5 6 5 5 6 6 6
1 2 7 5 2 1 3 6 3 4 6 7 6 5 4 4 3 4 6 6 6 6 6 6 5 5 4 4 4 4 5 5 5 4 5 5 5 6 5 5 5 5 6 6
2 3 6 5 4 4 1 6 3 3 6 7 5 5 6 5 6 6 6 5 6 5 5 6 6 4 4 5 4 5 5 5 5 5 5 6 6 6 5 4 5 5 5 5
3 4 7 5 5 2 1 7 5 4 5 5 4 5 7 7 7 6 7 7 6 5 5 6 5 4 5 5 6 6 5 5 5 5 5 5 5 5 4 4 4 5 5 5
2 4 8 2 2 1 5 5 5 5 4 4 5 6 7 7 7 7 7 7 6 6 6 6 4 4 5 6 6 5 4 5 5 5 4 4 4 4 4 5 5 5 5 5
6 6 3 1 2 4 4 4 5 5 5 4 5 7 7 7 7 7 7 7 6 6 7 6 5 4 5 6 4 4 4 4 4 4 4 4 4 4 4 4 4 5 5 5
4 6 4 4 4 5 5 5 6 5 5 5 5 6 7 7 7 7 7 7 6 6 7 7 6 5 5 5 4 3 4 4 4 3 4 3 3 4 4 4 5 5 5 5
5 5 6 5 4 6 6 5 5 5 5 5 4 6 6 6 7 7 7 7 6 6 7 8 7 6 5 4 3 3 4 4 3 3 3 3 3 4 4 5 6 6 5 5
6 4 5 7 6 5 5 6 6 5 6 5 4 6 6 6 6 7 7 7 7 7 7 8 7 7 6 4 3 3 4 3 3 3 3 3 3 3 6 6 8 9 8 7
5 5 5 6 5 5 5 6 5 5 5 6 5 5 6 6 6 7 7 7 8 8 8 8 7 7 6 5 4 4 4 4 3 3 3 3 3 3 3 4 6 7 7 8
3 3 4 4 5 6 5 5 5 5 5 5 5 5 5 6 6 7 8 8 8 8 8 7 7 7 7 5 4 4 4 4 4 3 3 3 3 3 3 3 3 4 5 7
4 3 4 4 4 5 5 4 5 5 5 6 5 6 6 7 7 8 8 8 7 7 7 7 7 8 7 5 5 4 4 3 3 2 2 2 2 2 2 3 3 3 3 4
6 4 3 4 5 5 5 5 5 6 6 7 7 7 7 7 7 7 7 7 7 8 8 8 8 8 8 6 4 4 3 5 4 2 2 2 2 2 2 2 3 3 3 3
4 5 5 6 6 6 6 6 6 6 7 7 7 7 7 7 7 7 7 7 7 7 8 8 8 9 7 6 5 4 3 3 4 3 2 2 2 2 2 2 2 3 3 4
4 5 5 6 6 6 7 6 6 6 7 7 7 6 6 7 7 8 8 8 7 8 8 8 8 8 7 7 5 4 3 3 2 2 2 2 2 1 1 2 2 3 3 4
5 5 5 5 5 5 5 6 6 6 6 6 6 6 6 6 7 7 7 7 7 8 8 8 12 9 7 8 7 4 3 3 3 2 2 3 2 2 2 2 2 3 3 3
5 5 5 5 5 5 5 5 5 5 6 5 5 6 6 7 7 7 7 6 6 6 8 9 8 7 7 7 8 3 3 3 3 2 2 2 2 2 2 2 2 3 3 3
5 5 5 5 5 5 5 5 5 5 6 5 5 6 6 7 6 6 6 7 7 8 8 10 7 6 6 6 7 3 3 3 3 2 2 2 2 2 2 2 3 3 3 3
5 4 5 5 5 6 5 5 5 5 6 6 6 6 6 7 7 6 5 5 7 11 8 5 6 8 9 7 4 3 3 3 2 2 2 2 2 2 3 3 3 3 3 3
4 4 5 5 5 5 6 5 5 5 5 6 6 6 6 6 5 5 7 6 6 11 8 6 9 13 12 5 3 3 3 3 3 2 2 2 2 2 3 3 3 3 3 3
4 4 5 5 4 4 5 6 5 5 5 5 5 5 5 5 5 4 5 9 12 12 7 10 14 13 10 4 4 4 4 3 3 3 3 3 3 3 3 3 3 3 3 4
4 4 4 4 4 4 5 5 5 5 5 5 5 5 4 3 4 6 5 6 11 11 7 9 13 12 7 4 4 4 4 3 3 3 3 3 3 3 3 3 3 4 4 4
3 3 3 4 3 4 4 4 4 5 5 5 5 5 5 4 5 5 5 6 8 10 7 5 6 7 5 4 4 4 4 4 5 4 3 3 4 4 4 4 5 4 4 4
3 3 3 3 3 4 4 4 4 5 5 5 5 5 5 5 5 5 6 5 6 6 5 5 5 5 4 4 4 4 4 4 4 3 3 3 3 4 4 5 4 4 4 4
Wind_Direction
253 262 242 249 260 235 220 223 230 253 259 284 292 290 290 291 302 309 313 315 313 309 306 307 306 297 283 280 280 270 254 253 252 250 242 237 232 228 226 224 225 224 230 233
273 264 269 282 287 261 250 246 247 265 274 290 304 315 308 296 288 291 296 295 297 299 302 296 291 292 289 282 277 264 253 256 257 252 246 241 238 232 228 225 225 226 231 233
262 285 325 284 266 230 236 243 231 249 266 301 313 307 292 290 293 287 285 287 289 293 289 287 283 278 272 272 272 265 260 260 255 247 245 244 243 238 233 227 226 230 233 231
272 5 250 241 212 212 221 254 260 275 292 300 288 289 287 283 282 287 290 292 296 298 298 295 290 285 281 280 274 269 267 265 257 247 246 247 243 242 239 233 227 229 233 234
193 248 273 292 311 332 260 279 289 278 300 312 315 311 303 314 311 290 289 293 294 294 294 293 291 289 285 280 274 271 269 269 264 251 248 245 243 242 239 234 235 234 235 232
181 219 248 269 294 304 254 278 313 306 297 309 335 314 299 325 327 314 308 303 301 301 300 294 291 288 280 275 272 268 270 272 271 260 250 244 243 244 243 236 236 237 242 238
215 232 260 279 311 1 181 273 313 303 294 297 282 268 293 315 320 319 315 311 310 307 300 292 292 288 276 272 267 269 274 274 270 264 255 248 248 243 236 234 236 236 241 244
199 225 260 315 40 195 262 302 314 310 302 293 291 299 308 313 316 319 318 315 313 310 305 304 302 291 282 272 272 275 271 268 267 266 262 257 247 243 233 226 231 236 238 243
202 222 258 245 230 279 303 304 306 307 303 300 299 304 311 314 315 316 314 311 310 306 306 311 310 297 286 285 284 278 271 267 269 272 268 261 248 240 236 226 227 233 231 236
256 262 278 282 299 315 313 299 301 304 306 307 297 302 309 312 314 315 315 315 315 314 312 312 314 309 291 291 290 278 272 272 271 270 270 263 254 239 234 229 229 233 232 237
262 283 308 288 298 306 314 319 321 321 316 311 303 305 308 308 310 313 316 317 315 311 306 305 311 311 306 301 292 282 276 271 270 267 264 264 261 249 246 241 236 238 237 235
256 268 269 286 300 312 312 313 315 319 321 323 313 304 307 308 310 311 313 316 317 314 309 307 310 309 310 307 292 278 277 273 265 261 259 259 266 276 268 263 261 258 257 253
269 298 285 289 306 315 305 308 314 315 309 313 315 308 308 308 312 313 313 316 315 313 311 311 311 309 310 309 300 281 271 272 266 257 255 258 260 262 278 282 271 267 265 264
301 314 300 297 303 312 311 312 315 315 314 313 311 313 313 311 313 314 314 313 313 314 315 314 314 310 309 311 304 294 284 277 275 258 259 262 262 260 262 268 279 283 277 273
317 304 275 291 306 316 320 322 324 322 322 322 321 319 319 316 312 310 312 316 318 319 319 319 317 314 316 310 303 296 289 281 272 262 260 265 267 265 265 266 273 286 297 288
317 317 308 309 309 317 323 324 321 317 318 318 320 320 318 312 309 311 317 323 324 321 319 318 316 316 318 315 308 301 290 290 297 284 269 271 267 266 270 274 278 279 279 286
323 321 319 314 308 310 311 312 309 308 311 313 314 316 319 320 320 321 323 324 317 311 313 314 315 317 320 323 314 305 302 302 308 309 288 273 267 263 267 273 279 284 286 287
295 291 292 294 298 304 311 315 313 313 312 311 315 319 321 322 319 317 319 321 322 319 319 319 318 321 324 324 317 310 313 315 311 305 302 293 292 283 282 283 286 289 300 302
327 323 320 317 311 307 309 314 315 314 315 317 318 318 316 315 313 314 318 323 324 323 324 325 326 331 325 321 322 320 321 318 316 313 307 300 310 309 297 293 294 293 295 301
332 332 331 330 328 322 317 317 318 319 320 320 321 322 321 320 320 321 321 317 310 307 311 319 323 322 318 316 323 324 322 319 315 313 314 309 307 307 303 299 300 299 299 300
327 328 330 331 327 324 319 317 317 317 319 322 320 315 314 317 321 321 322 319 319 318 320 325 329 321 317 322 325 323 318 315 312 309 310 311 312 311 310 309 308 304 302 306
323 325 327 327 327 324 321 318 316 316 319 320 318 317 318 320 322 319 312 304 313 322 328 323 319 320 325 331 332 328 322 317 315 317 314 311 309 307 306 308 308 307 308 311
320 321 321 321 319 315 318 321 320 317 315 316 318 317 315 312 314 318 319 319 318 323 329 322 324 330 335 342 338 331 325 321 318 315 312 308 302 298 301 305 307 308 308 309
321 320 318 319 321 323 323 323 324 322 318 314 315 314 313 315 316 310 303 318 326 327 329 327 333 337 343 348 338 333 328 322 319 316 315 312 308 307 307 307 307 307 306 306
319 317 320 325 325 318 317 323 328 329 328 326 325 325 322 312 308 313 314 317 323 330 330 332 337 340 345 339 334 329 327 324 319 317 315 313 311 311 309 308 305 305 305 303
320 316 312 310 312 316 322 327 327 326 327 327 327 329 327 322 317 316 318 321 324 332 338 336 335 335 337 333 329 326 324 322 324 328 325 318 314 312 310 310 306 302 300 296
326 327 327 329 329 328 326 324 321 322 324 321 323 327 329 329 328 330 329 329 332 336 337 338 339 340 337 331 327 326 325 322 318 317 316 312 309 306 305 303 300 299 297 295